EW4055 Weather Reports


time (UTC)temp
C
wind
direction
speed
KPH
gust
KPH
rain 1hr
cm
rain 24hr
cm
rain mn
cm
humidity
%
barometer
mb
20260503211515 16 252 3.2 4.8 0.00 0.00 0.00 60 1017.6
20260503211153 16 285 4.8 6.4 0.00 0.00 0.00 61 1017.5
20260503205505 16 288 4.8 6.4 0.00 0.00 0.00 62 1017.5
20260503204511 16 276 3.2 4.8 0.00 0.00 0.00 62 1017.5
20260503203507 16 274 3.2 4.8 0.00 0.00 0.00 63 1017.5
20260503202503 16 307 3.2 4.8 0.00 0.00 0.00 63 1017.5
20260503201828 16 192 0.0 1.6 0.00 0.00 0.00 61 1017.4
20260503201606 16 224 1.6 4.8 0.00 0.00 0.00 62 1017.4
20260503195504 16 192 1.6 1.6 0.00 0.00 0.00 59 1017.4
20260503194503 16 192 0.0 3.2 0.00 0.00 0.00 58 1017.3
20260503193502 16 221 0.0 3.2 0.00 0.00 0.00 58 1017.4
20260503192503 17 166 1.6 4.8 0.00 0.00 0.00 58 1017.3
20260503191500 17 147 3.2 6.4 0.00 0.00 0.00 57 1017.2
20260503190501 17 159 1.6 6.4 0.00 0.00 0.00 58 1017.2
20260503185502 17 134 3.2 6.4 0.00 0.00 0.00 58 1017.2
20260503184459 17 158 3.2 6.4 0.00 0.00 0.00 57 1017.1
20260503183459 18 168 1.6 4.8 0.00 0.00 0.00 57 1016.9
20260503182501 18 180 3.2 3.2 0.00 0.00 0.00 56 1017.1
20260503181459 18 0.0 4.8 0.00 0.00 0.00 56 1016.9
20260503180501 18 248 0.0 6.4 0.00 0.00 0.00 55 1017.1
20260503175459 19 155 1.6 8.0 0.00 0.00 0.00 54 1016.9
20260503174500 20 159 4.8 8.0 0.00 0.00 0.00 52 1016.9
20260503173504 20 110 3.2 8.0 0.00 0.00 0.00 52 1016.9
20260503172459 20 63 3.2 8.0 0.00 0.00 0.00 52 1016.9
20260503171458 20 138 1.6 8.0 0.00 0.00 0.00 52 1017.1
20260503171222 20 148 3.2 11.3 0.00 0.00 0.00 51 1017.1
20260503130453 25 92 8.0 9.7 0.00 0.00 0.00 34 1018.2
20260503110448 24 11 0.0 6.4 0.00 0.00 0.00 32 1019.0
20260503100257 23 134 4.8 9.7 0.00 0.00 0.00 40 1019.8
20260503090434 23 144 4.8 9.7 0.00 0.00 0.00 36 1020.1
20260503090247 22 103 1.6 4.8 0.00 0.00 0.00 41 1020.1
20260503081432 20 221 1.6 4.8 0.00 0.00 0.00 42 1020.2
20260503080426 20 319 1.6 4.8 0.00 0.00 0.00 51 1020.4
20260503072424 17 227 0.0 4.8 0.00 0.00 0.00 60 1020.3
20260503071421 16 274 1.6 3.2 0.00 0.00 0.00 58 1020.3
20260503070419 16 243 1.6 4.8 0.00 0.00 0.00 60 1020.3
20260503060155 13 272 3.2 6.4 0.00 0.00 0.00 62 1020.1
20260503052412 12 272 3.2 6.4 0.00 0.00 0.00 64 1019.9
20260503051404 11 272 6.4 8.0 0.00 0.00 0.00 64 1019.8
20260503050407 11 271 3.2 4.8 0.00 0.00 0.00 64 1019.8
20260503045407 11 288 3.2 6.4 0.00 0.00 0.00 64 1019.7
20260503044409 11 255 4.8 6.4 0.00 0.00 0.00 64 1019.8
20260503043403 11 0.0 4.8 0.00 0.00 0.00 64 1019.7
20260503042949 11 259 4.8 4.8 0.00 0.00 0.00 65 1019.7
20260503041359 11 264 3.2 6.4 0.00 0.00 0.00 66 1019.8
20260503040357 11 285 6.4 6.4 0.00 0.00 0.00 65 1019.7
20260503035358 11 283 4.8 6.4 0.00 0.00 0.00 65 1019.6
20260503034356 11 283 4.8 6.4 0.00 0.00 0.00 65 1019.6
20260503033352 11 275 3.2 4.8 0.00 0.00 0.00 65 1019.6
20260503032350 11 293 4.8 6.4 0.00 0.00 0.00 65 1019.8
20260503031351 11 289 4.8 6.4 0.00 0.00 0.00 65 1019.8
20260503030954 11 283 4.8 9.7 0.00 0.00 0.00 66 1019.9
20260503025350 11 285 3.2 4.8 0.00 0.00 0.00 66 1019.8
20260503024349 11 281 3.2 9.7 0.00 0.00 0.00 66 1019.9
20260503024209 11 282 4.8 6.4 0.00 0.00 0.00 66 1020.0
20260503023428 11 269 4.8 6.4 0.00 0.00 0.00 66 1019.9
20260503021351 11 282 6.4 8.0 0.00 0.00 0.00 67 1020.0
20260503020557 11 286 6.4 8.0 0.00 0.00 0.00 67 1020.0
20260503020418 11 0.0 4.8 0.00 0.00 0.00 67 1020.1
20260503014341 11 0.0 8.0 0.00 0.00 0.00 66 1020.1
20260503013339 11 279 6.4 11.3 0.00 0.00 0.00 66 1020.1
20260503013056 11 266 4.8 11.3 0.00 0.00 0.00 66 1020.2
20260503012048 11 269 4.8 6.4 0.00 0.00 0.00 66 1020.3
20260503010337 11 265 6.4 6.4 0.00 0.00 0.00 66 1020.2
20260503005947 11 0.0 0.0 0.00 0.00 0.00 66 1020.4
20260503004337 11 279 4.8 4.8 0.00 0.00 0.00 66 1020.5
20260503003338 11 0.0 0.0 0.00 0.00 0.00 67 1020.6
20260503002340 11 0.0 0.0 0.00 0.00 0.00 66 1020.7
20260503001336 11 266 4.8 8.0 0.00 0.00 0.00 67 1020.7
20260503000335 11 264 6.4 9.7 0.00 0.00 0.00 68 1020.8
20260502235336 11 283 6.4 11.3 0.00 0.00 0.00 67 1021.0
20260502234334 11 275 4.8 6.4 0.00 0.00 0.00 67 1021.1
20260502233922 11 275 4.8 9.7 0.00 0.00 0.00 68 1021.1
20260502232335 11 276 6.4 11.3 0.00 0.00 0.00 67 1021.1
20260502232137 11 272 8.0 9.7 0.00 0.00 0.00 66 1021.3
20260502230335 12 265 6.4 6.4 0.00 0.00 0.00 66 1021.3
20260502225335 11 275 3.2 4.8 0.00 0.00 0.00 66 1021.4
20260502224334 11 276 3.2 6.4 0.00 0.00 0.00 66 1021.5
20260502223334 12 281 4.8 6.4 0.00 0.00 0.00 66 1021.6
20260502222340 12 281 3.2 8.0 0.00 0.00 0.00 66 1021.7
20260502221335 12 279 4.8 9.7 0.00 0.00 0.00 65 1021.6
20260502220333 12 279 6.4 11.3 0.00 0.00 0.00 65 1021.6
20260502215333 12 285 4.8 6.4 0.00 0.00 0.00 65 1021.8
20260502214332 12 266 4.8 6.4 0.00 0.00 0.00 64 1021.7
20260502213331 12 283 3.2 6.4 0.00 0.00 0.00 63 1021.9
20260502212445 12 305 3.2 4.8 0.00 0.00 0.00 62 1021.8
20260502212424 12 266 3.2 9.7 0.00 0.00 0.00 63 1021.8